Location: American Medical Response
(33.3472°N, 96.5511°W)
Time: 12:54:57
(UTC+00:00)

Sich 1 - Pass Details

Date: 08 December 2021
Orbit: 595 x 623 km, 82.5° (Epoch: 22 January)

Event Time Altitude Azimuth Distance (km) Brightness Sun altitude
Rises 12:22:40 0° 183° (S) 2,834 6.7 -11.4°
Reaches altitude 10° 12:24:52 10° 183° (S) 1,931 5.8 -11.0°
Maximum altitude 12:29:08 84° 95° (E) 605 3.1 -10.1°
Drops below altitude 10° 12:33:24 10° 8° (N) 1,934 5.5 -9.3°
Sets 12:35:37 0° 8° (N) 2,839 6.3 -8.9°
